Location: Arroyo Grande
(40.2671°N, 4.2512°W)
Time: 17:06:40
(UTC+00:00)

Atlas Centaur 2 - Pass Details

Date: 03 February 2023
Orbit: 458 x 1296 km, 30.4° (Epoch: 21 March)

Event Time Altitude Azimuth Distance (km) Brightness Sun altitude
Rises 19:53:05 0° 245° (WSW) 4,125 6.8 -26.1°
Reaches altitude 10° 19:56:05 10° 239° (WSW) 3,227 5.9 -26.7°
Maximum altitude 20:03:41 41° 173° (S) 1,807 3.7 -28.1°
Enters shadow 20:05:09 38° 151° (SSE) 1,879 3.7 -28.4°
